Regional Weather Roundup
Issued by NWS Charleston, WV

Home | Current Version | Previous Version | Text Only | Print | Product List | Glossary Off
Versions: 1 2 3 4 5 6 7 8 9 10 11 12 13 14 15 16 17 18 19 20 21 22 23 24 25 26 27 28 29 30 31 32 33 34 35 36 37 38 39 40 41 42 43 44 45 46 47 48 49 50

000
ASUS41 KRLX 311610
RWRRLX
West Virginia Regional Weather Roundup
National Weather Service Charleston WV
1200 PM EDT FRI JUL 31 2015

Note: "fair" indicates few or no clouds below 12,000 feet with no
significant weather and/or obstructions to visibility.

WVZ003-311700-
Northern Panhandle of West Virginia

CITY           SKY/WX    TMP DP  RH WIND       PRES   REMARKS
WHEELING       SUNNY     81  57  43 W10       30.01F
$$

WVZ009-311700-
Northwest West Virginia

CITY           SKY/WX    TMP DP  RH WIND       PRES   REMARKS
PARKERSBURG    SUNNY     82  58  43 SW7       30.05F
$$

WVZ006-311700-
Western West Virginia

CITY           SKY/WX    TMP DP  RH WIND       PRES   REMARKS
HUNTINGTON     SUNNY     83  59  44 VRB3      30.06S
$$

WVZ015-311700-
West Central West Virginia

CITY           SKY/WX    TMP DP  RH WIND       PRES   REMARKS
CHARLESTON     MOSUNNY   80  60  50 W6        30.06S
$$

WVZ022-031-311700-
North Central West Virginia

CITY           SKY/WX    TMP DP  RH WIND       PRES   REMARKS
CLARKSBURG     SUNNY     79  60  52 VRB5      30.04S
MORGANTOWN     MOSUNNY   82  57  42 SW7       30.04F
$$

WVZ025-035-042-045-311700-
Southern West Virginia

CITY           SKY/WX    TMP DP  RH WIND       PRES   REMARKS
BECKLEY        SUNNY     75  53  46 CALM      30.14R
LOGAN            N/A     77  61  57 CALM      30.07S
BLUEFIELD      PTSUNNY   75  54  47 W5        30.16S
LEWISBURG      MOSUNNY   76  55  47 N3        30.11F
$$

WVZ047-311700-
Northern Mountains of West Virginia

CITY           SKY/WX    TMP DP  RH WIND       PRES   REMARKS
ELKINS         MOSUNNY   76  56  49 MISG      30.08F
$$

WVZ052-311700-
Eastern Panhandle of West Virginia

CITY           SKY/WX    TMP DP  RH WIND       PRES   REMARKS
MARTINSBURG    SUNNY     84  56  38 W7G17     29.98S
PETERSBURG     MOSUNNY  N/A N/A N/A CALM      30.02S
$$


USA.gov is the U.S. government's official web portal to all federal, state and local government web resources and services.